Powrót do katalogu

STARLINK-36236

AktywnyŁącznośćVLEO
NORAD 67078·PAYLOAD·🇺🇸 United States

Wystrzelony Dec 14, 2025 z Vandenberg Space Force Base

Loading…

Następne Przeloty (najbliższe 24 godziny)

TLE

ŚwieżeSource: CelesTrak SupGP

Epoka: Sep 14, 2026, 21:14 UTC

1 67078C 25298D   26257.88520833  .00073044  00000+0  61217-2 0  2576
2 67078  69.9997 257.5525 0003823 265.5051 103.1997 14.98289481    15

Śledź STARLINK-36236 w czasie rzeczywistym z AllMySat

Download on the App Store